www.pogodaiklimat.ru

АРХИВ ПОГОДЫ в Харькове

Время (UTC), дата Ветер
(напр.,м/с)
 
Видим.   Явления Облачность Т
(С)
Тd
(С)
f
(%)
Тe
(С)
Тes
(С)
Комфортность P
(гПа)
Po
(гПа)
Тmin
(С)
Tmax
(С)
R
(мм)
S
(см)
09 10.01 ЮВ 4 10 км 10/10 180 м
[Sc]
-5.3 -6.0 95 -12 -12 по сезону 1026.1 1006.1
12 10.01 В 2 10 км 10/10 240 м
[Sc]
-5.0 -5.6 96 -9 -9 по сезону 1025.8 1005.8
15 10.01 В 3 10 км 10/10 180 м
[Sc]
-5.0 -5.6 96 -11 -11 по сезону 1025.9 1005.9
18 10.01 В 3 4000 м дымка 10/10 120 м
[St]
-5.2 -5.9 95 -11 -11 по сезону 1027.0 1007.0 -5.0
21 10.01 В 3 1100 м слабая переохл. морось (гололёд) 10/10 90 м
[St]
-5.0 -5.3 98 -11 -11 по сезону 1027.0 1007.0
00 11.01 В 2 200 м переохл. туман {морось} [диам. сложн. отлож. 32 мм] ?/? -4.8 -4.8 100 -9 -9 по сезону 1027.3 1007.3
03 11.01 В 2 1900 м в посл. час туман 10/10 90 м
[St]
-4.7 -5.0 98 -9 -9 по сезону 1027.0 1007.0
06 11.01 В 2 5000 м дымка {туман} 10/10 240 м
[Sc]
-4.6 -5.2 96 -9 -9 по сезону 1027.4 1007.4 -5.2 0.0 25
09 11.01 В 2 4000 м дымка 10/10 570 м
[Sc]
-3.6 -4.4 94 -8 -8 по сезону 1026.8 1006.9
12 11.01 В 6 4000 м дымка 10/10 240 м
[Sc]
-3.1 -4.1 93 -11 -11 прохладно 1025.0 1005.2
15 11.01 В 7 4000 м дымка 10/10 180 м
[Sc]
-3.9 -4.7 94 -12 -12 прохладно 1023.5 1003.7
18 11.01 ЮВ 7 4000 м дымка 10/10 240 м
[Sc]
-4.0 -4.8 94 -12 -12 по сезону 1022.5 1002.7 -3.1
21 11.01 ЮВ 6 2500 м слабый ливневой снег 10/10 210 м
[Cb cap]
-4.1 -5.0 93 -12 -12 по сезону 1020.3 1000.5
00 12.01 ЮВ 5 3000 м в посл. час снег {ливн. осадки} 10/8 120 м
[Frnb As op]
-3.0 -3.4 97 -10 -10 по сезону 1017.9 998.2
03 12.01 ЮВ 8 4000 м дымка 10/10 240 м
[Sc]
-0.2 -1.1 94 -8 -8 по сезону 1014.6 995.2
06 12.01 ЮВ 7 2500 м слабый снег {ливн. осадки} 10/8 120 м
[Frnb As op]
0.0 -0.5 96 -7 -7 по сезону 1011.9 992.6 -4.1 2 26
09 12.01 ЮВ 8 4800 м слабый ливневой дождь со снегом 10/10 150 м
[Cb cap]
+0.5 -0.1 96 -7 -7 по сезону 1008.4 989.2
12 12.01 Ю 5 5000 м слабый снег {ливн. осадки} 10/8 120 м
[Frnb As op]
+0.8 +0.3 96 -5 -5 по сезону 1006.4 987.2
15 12.01 Ю 4 10 км в посл. час ливневой снег 10/10 240 м
[Cb cap]
-0.8 -1.5 95 -7 -7 по сезону 1007.9 988.6
18 12.01 ЮЗ 4 10 км {ливн. осадки, снег} 9/8 360 м
[Sc Ac trans]
-2.8 -4.1 91 -9 -9 по сезону 1008.2 988.7 +1.0 5
21 12.01 З 3 10 км 9/0
[Ac trans]
-4.4 -6.3 87 -10 -10 по сезону 1008.7 989.1
00 13.01 З 4 4000 м дымка 10/8 150 м
[St Ac und]
-6.8 -7.7 93 -14 -14 прохладно 1009.7 989.9
03 13.01 З 3 5000 м дымка 10/8 150 м
[St Ac und]
-7.2 -8.1 93 -13 -13 прохладно 1009.8 990.0
06 13.01 ЮЗ 3 5000 м дымка 10/10 150 м
[Sc]
-7.9 -8.9 93 -14 -14 прохладно 1011.6 991.7 -7.9 26
09 13.01 Ю 3 4000 м дымка 10/10 240 м
[Sc]
-7.9 -8.9 93 -14 -14 прохладно 1013.4 993.4
12 13.01 Ю 3 4200 м дымка 10/10 120 м
[Sc]
-6.6 -7.4 94 -12 -12 прохладно 1014.9 995.0
15 13.01 Ю 3 3500 м дымка 10/10 180 м
[St]
-4.7 -5.6 93 -10 -10 по сезону 1016.7 996.9
18 13.01 Ю 4 2200 м дымка 10/10 90 м
[St]
-4.4 -5.0 96 -11 -11 по сезону 1017.3 997.5 -4.4
21 13.01 ЮВ 5 2900 м дымка 10/10 120 м
[St]
-4.7 -5.3 96 -12 -12 по сезону 1018.0 998.2
00 14.01 ЮВ 5 4700 м дымка 9/0
[Ac trans]
-4.8 -5.8 93 -12 -12 по сезону 1017.6 997.8
03 14.01 ЮВ 6 4000 м дымка 10/0
[Ac und]
-4.8 -5.8 93 -13 -13 прохладно 1016.6 996.8
06 14.01 ЮВ 6 4000 м дымка 10/10 840 м
[Sc]
-4.0 -5.2 91 -12 -12 по сезону 1016.2 996.5 -4.8 26
09 14.01 ЮВ 7 10 км 10/10 750 м
[Sc]
-2.0 -3.8 87 -10 -10 по сезону 1015.4 995.8
12 14.01 ЮВ 8 4000 м слабый ливневой снег 10/10 300 м
[Cb cap]
-0.2 -1.9 88 -8 -8 по сезону 1013.9 994.5
15 14.01 ЮВ 8 10 км {ливн. осадки} 10/8 800 м
[Sc Ac und]
+0.6 -1.1 88 -7 -7 по сезону 1013.4 994.1
18 14.01 ЮВ 8 10 км {ливн. осадки} 9/0
[Ac trans]
+0.7 -1.3 86 -7 -7 по сезону 1013.1 993.8 +1.3 0.2
21 14.01 ЮВ 9 10 км 9/6 600 м
[Sc Ac trans]
+1.4 -1.1 83 -6 -6 по сезону 1012.8 993.5
00 15.01 ЮВ 10 10 км 10/6 300 м
[Sc Ac und]
-0.1 -2.4 84 -8 -8 по сезону 1013.3 993.9
03 15.01 ЮВ 9 4000 м слабый ливневой снег 10/10 270 м
[Cb cap]
-1.2 -2.5 91 -10 -10 по сезону 1013.1 993.7
06 15.01 ЮВ 6 3000 м слабый ливневой снег 10/10 300 м
[Cb cap]
-0.2 -1.6 90 -7 -7 по сезону 1014.1 994.7 -1.2 0.2 25
09 15.01 ЮВ 6 2200 м слабый ливневой снег 10/10 180 м
[Cb cap]
-0.1 -1.2 92 -7 -7 по сезону 1014.5 995.1
12 15.01 ЮВ 4 1600 м снег {ливн. осадки} 10/8 180 м
[Frnb As op]
-0.2 -0.8 96 -6 -6 по сезону 1015.3 995.9
15 15.01 ЮВ 3 2400 м слабый снег 10/8 150 м
[Frnb As op]
-0.4 -1.0 96 -5 -5 по сезону 1016.6 997.1
18 15.01 ЮВ 2 2200 м слабый снег 10/8 120 м
[Frnb As op]
-0.8 -1.2 97 -5 -5 по сезону 1017.7 998.2 -0.1 6
21 15.01 штиль 0 2400 м в посл. час снег 10/8 120 м
[Frnb As op]
-0.7 -1.1 97 -2 -2 тепло 1019.1 999.6
00 16.01 СЗ 2 600 м туман {снег} ?/? -0.5 -0.6 99 -4 -4 тепло 1020.3 1000.8
03 16.01 С 3 5000 м дымка {туман} 10/10 210 м
[St]
-0.5 -0.8 98 -6 -6 по сезону 1020.9 1001.4
06 16.01 СЗ 3 5000 м дымка {туман} 10/10 210 м
[St]
-0.9 -1.6 95 -6 -6 по сезону 1022.3 1002.7 -0.9 0.5 32
09 16.01 С 3 4000 м дымка 9/9 300 м
[Sc]
-0.4 -1.6 92 -5 -5 по сезону 1023.2 1003.6
12 16.01 СЗ 4 10 км 6/4 1000 м
[Sc Ci fib]
-0.1 -3.1 80 -5 -5 по сезону 1023.9 1004.3
15 16.01 СЗ 4 10 км 9/9 1200 м
[Sc]
-1.6 -5.0 78 -7 -7 по сезону 1024.9 1005.2
18 16.01 С 2 10 км 4/4 1000 м
[Sc]
-4.2 -6.8 82 -8 -8 по сезону 1026.3 1006.4 -0.1
21 16.01 СЗ 2 4000 м дымка 4/4 1000 м
[Sc]
-6.8 -8.4 88 -11 -11 по сезону 1027.7 1007.5
00 17.01 СЗ 2 2700 м дымка ясно -8.4 -9.4 92 -13 -13 прохладно 1029.2 1008.9
03 17.01 С 2 2400 м дымка ясно -12.3 -13.3 92 -17 -17 холодно 1029.9 1009.3
06 17.01 СЗ 3 4900 м дымка 3/0
[Ci fib]
-13.7 -15.1 89 -20 -20 очень
холодно
1031.8 1011.0 -13.7 32

 

Местоположение метеостанции Харьков (Харьковская область, Украина): широта 49.97 долгота 36.13 высота над уровнем моря 155 м.

В архиве по умолчанию представлена погода в Харькове за последнюю неделю. Архивные данные за месяц целиком и за предыдущие месяцы, начиная с января 2011 года, Вы можете получить, выбрав интересующий диапазон дат из раскрывающегося списка и нажав кнопку "Ввод!".

Внимание! Время в таблицах - всемирное. Для получения местного времени необходимо прибавить поправку, которая в Харькове равна 2 ч.

Ветер - указаны скорость ветра в м/с - средняя за 10 мин, порывы в срок и между сроками (в фигурных скобках) и направление, откуда дует ветер: С - северный, СВ - северо-восточный, В - восточный, ЮВ - юго-восточный, Ю - южный, ЮЗ - юго-западный, З - западный, СЗ - северо-западный.
Видимость - горизонтальная дальность видимости в метрах или километрах. При видимости от 1 до 10 км при отсутствии осадков обычно наблюдается дымка, при ухудшении видимости до 1 км и менее - туман. В сухую погоду видимость может ухудшаться дымом, пылью или мглою.
Явления - указаны атмосферные явления, наблюдавшиеся в срок или в последний час перед сроком; фигурными скобками обозначены явления, наблюдавшиеся между сроками (за 1-3 часа до срока); квадратными скобками обозначены град или гололедные отложения с указанием их диаметра в мм.
Облачность - указаны через наклонную черту общая и нижняя облачность в баллах и высота нижней границы облаков в метрах; квадратными скобками обозначены формы облаков: Ci - перистые, Cs - перисто-слоистые, Cc - перисто-кучевые, Ac - высококучевые, As - высокослоистые, Sc - слоисто-кучевые, Ns - слоисто-дождевые, Cu - кучевые, Cb - кучево-дождевые. Подробнее классификацию облаков см. в Атласе облаков (PDF).
T - Температура воздуха - температура, измеренная на высоте 2 м над землей.
Td - Температура точки росы - температура, при понижении до которой содержащийся в воздухе водяной пар достигнет насыщения.
f - Относительная влажность воздуха - влажноcть воздуха, измеренная на высоте 2 м над землей.
Te - Эффективная температура - температура, которую ощущает одетый по сезону человек в тени. Характеристика душности погоды. При расчете учитывается влияние влажности воздуха и скорости ветра на теплоощущения человека.
Tes - Эффективная температура на солнце - температура, которую ощущает человек, с поправкой на солнечный нагрев. Характеристика знойности погоды. Зависит от высоты солнца над горизонтом, облачности и скорости ветра. Ночью, в пасмурную погоду, а также при ветре 12 м/с и более поправка равна нулю.
P - Атмосферное давление - приведенное к уровню моря атмосферное давление.
Po - Атмосферное давление - измеренное на уровне метеостанции атмосферное давление.
Tmin - Минимальная температура - минимум температуры воздуха на высоте 2 м над землей.
Tmax - Максимальная температура - максимум температуры воздуха на высоте 2 м над землей.
R - Количество осадков - Количество выпавших осадков, мм. При наведении курсора мыши на число - период времени, за который выпало указанное количество осадков.
S - Снежный покров - Высота снежного покрова, см. При наведении курсора мыши на число - состояние снежного покрова и степень покрытия местности в баллах.